Simultaneous Nadir Overpasses (SNOs) Predictions

Prediction of SNOs between GOES-17 and METOP-B Satellite Orbit:

Table of predicted SNOs for the next 14.0 days since TLE Epoch: 9/13/2019
Index Date Time (GOES-17) GOES-17 Lat,Lon METOP-B Lat,Lon Distance(km) Time Diff (sec)
1 09/14/2019 06:53:47 -0.01,-137.17 -0.80,-140.61 392.50 80
2 09/15/2019 06:30:28 -0.01,-137.16 0.32,-135.61 175.55 80
3 09/16/2019 18:49:19 0.01,-137.14 0.68,-140.17 345.24 80
4 09/17/2019 18:31:20 0.01,-137.13 -0.44,-135.18 222.58 80
5 09/19/2019 06:50:20 -0.01,-137.10 -0.58,-139.78 304.05 80
6 09/20/2019 06:27:00 -0.02,-137.09 0.48,-134.77 263.31 80
7 09/21/2019 18:45:51 0.03,-137.06 0.52,-139.33 259.08 80
8 09/22/2019 18:27:51 0.03,-137.03 -0.60,-134.34 307.63 80
9 09/24/2019 06:46:51 -0.03,-136.99 -0.47,-138.93 220.85 80
10 09/25/2019 06:23:31 -0.02,-136.96 0.65,-133.93 345.27 80
11 09/26/2019 18:42:22 0.02,-136.92 0.36,-138.49 178.85 80
12 09/27/2019 18:24:23 0.01,-136.89 -0.77,-133.50 386.95 80




NCC Satellite Simultaneous Nadir Overpasses (SNOs) Prediction Service
